Location: Unspecified
(51.0950°N, 12.9690°E)
Time: 06:29:49
(UTC+00:00)

NANOSAT C BR1 - Pass Details

Date: 03 May 2024
Orbit: 556 x 561 km, 98.1° (Epoch: 19 May)

Event Time Altitude Azimuth Distance (km) Brightness Sun altitude
Rises 02:03:12 0° 27° (NNE) 2,773 ? -12.7°
Reaches altitude 10° 02:05:55 10° 47° (NE) 1,871 ? -12.4°
Maximum altitude 02:08:45 18° 91° (E) 1,411 ? -12.0°
Drops below altitude 10° 02:11:35 10° 136° (SE) 1,860 ? -11.7°
Sets 02:14:16 0° 155° (SSE) 2,750 ? -11.4°
